Regional Weather Roundup
Issued by NWS Sterling, VA

Home | Current Version | Previous Version | Graphics & Text | Print | Product List | Glossary On
Versions: 1 2 3 4 5 6 7 8 9 10 11 12 13 14 15 16 17 18 19 20 21 22 23 24 25 26 27 28 29 30 31 32 33 34 35 36 37 38 39 40 41 42 43 44 45 46 47 48 49 50
760
ASUS41 KLWX 271211
RWRLWX

REGIONAL WEATHER ROUNDUP
NATIONAL WEATHER SERVICE BALTIMORE MD/WASHINGTON DC
800 AM EDT THU APR 27 2017

Note: "FAIR" indicates few or no clouds below 12,000 feet
with no significant weather and/or obstructions to visibility.
 TC=TEMPERATURE CELSIUS

 * =Non NWS site. Station does not report precipitation (e.g. rain,
    snow, etc.), thunder, or fog.

DCZ001-MDZ009-015-VAZ040>042-051-053>054-271300-
WASHINGTON METRO

CITY           SKY/WX    TMP DP  RH WIND       PRES   REMARKS
WASHINGTON NAT MOSUNNY   61  59  93 NE3       29.85R
DULLES         FOG       59  58  96 E3        29.84R VSB 1/4
ANDREWS AFB    FOG       57  57 100 E6        29.84S VSB 1/2
FT BELVOIR     CLOUDY    59  58  97 CALM      29.84
QUANTICO       MOSUNNY   62  61  96 E3        29.84R
COLLEGE PARK*  CLOUDY    58  58  99 CALM      29.85S
LEESBURG*      FOG       59  59 100 E6        29.85S VSB 3/4
MANASSAS*      FOG       59  59 100 CALM      29.84S VSB 1/2

$$

MDZ006>007-011-014-271300-
BALTIMORE METRO

CITY           SKY/WX    TMP DP  RH WIND       PRES   REMARKS
BWI AIRPORT    CLOUDY    58  58 100 E7        29.86R FOG
MD SCIENCE CTR   N/A     62  56  80 MISG      29.87R
MARTIN STATE   PTSUNNY   59  59 100 CALM      29.89R FOG
ANNAPOLIS      SUNNY     61  59  93 SE6       29.86R
FORT MEADE*    CLOUDY    59  57  94 E3        29.88S

$$

MDZ012-015-019>023-271300-
MARYLAND EASTERN SHORE

CITY           SKY/WX    TMP DP  RH WIND       PRES   REMARKS
OCEAN CITY     CLOUDY    57  55  93 S5        29.90R
SALISBURY      CLOUDY    58  58 100 SE5       29.88R FOG
BAY BRIDGE AP* SUNNY     61  59  94 SE7       29.86R FOG
CAMBRIDGE*     PTSUNNY   61  59  94 SE6       29.87R
EASTON*        MOSUNNY   61  57  88 SE3       29.90R

$$

MDZ017>025-271300-
SOUTHERN MARYLAND

CITY           SKY/WX    TMP DP  RH WIND       PRES   REMARKS
PATUXENT RIVER MOSUNNY   62  62 100 E3        29.85R
ST INIGOES     SUNNY     64  62  93 S6        29.85R
LEONARDTOWN*   SUNNY     63  61  94 CALM      29.87R

$$

MDZ003>005-271300-
NORTH CENTRAL MARYLAND

CITY           SKY/WX    TMP DP  RH WIND       PRES   REMARKS
FREDERICK*     CLOUDY    61  61 100 CALM      29.87R FOG
HAGERSTOWN APT CLOUDY    61  58  90 CALM      29.83R FOG
WESTMINSTER*   FOG       59  59 100 SE8       29.86R VSB 1

$$

MDZ501>502-271300-
WESTERN MARYLAND

CITY           SKY/WX    TMP DP  RH WIND       PRES   REMARKS
OAKLAND*       CLOUDY    59  54  82 S9        29.82R
CUMBERLAND*    CLOUDY    57  57 100 CALM      29.85R

$$

VAZ025>031-271300-
SHENANDOAH VALLEY

CITY           SKY/WX    TMP DP  RH WIND       PRES   REMARKS
WINCHESTER*    FOG       55  55 100 NE3       29.81S VSB<1/4
FRONT ROYAL*   CLOUDY    55  55 100 CALM      29.81R VSB 1/4
LURAY*         FOG       55  55 100 CALM      29.81R VSB<1/4
NEW MARKET*    CLOUDY    53  52  96 CALM      29.82R VSB<1/4
STAUNTON*      SUNNY     58  57  95 CALM      29.84R
WAYNESBORO*    SUNNY     62  60  95 CALM      29.83R

$$

WVZ021-048>050-054>055-271300-
EASTERN WEST VIRGINIA PANHANDLE

CITY           SKY/WX    TMP DP  RH WIND       PRES   REMARKS
MARTINSBURG    CLOUDY    60  58  92 E5        29.81S FOG
PETERSBURG*    CLOUDY    56  56  99 CALM      29.82R FOG

$$

VAZ036>039-050-271300-
CENTRAL FOOTHILLS

CITY           SKY/WX    TMP DP  RH WIND       PRES   REMARKS
CHARLOTTESVILL FOG       59  58  96 CALM      29.83R VSB 1/4
CULPEPER*      FOG       61  61 100 CALM      29.84S VSB 1/2
ORANGE*        FOG       57  57 100 CALM      29.83S VSB<1/4
GORDONSVILLE*  FOG       56  56 100 CALM      29.82S VSB 1/4
WARRENTON*     FOG       61  59  91 CALM      29.82F VSB 1/4

$$

VAZ055>057-271300-
NORTH AND CENTRAL PIEDMONT

CITY           SKY/WX    TMP DP  RH WIND       PRES   REMARKS
FREDERICKSBRG* CLOUDY    57  57 100 CALM      29.83S FOG
STAFFORD*      CLOUDY    56  56 100 CALM      29.87S FOG

$$

NCZ024-NYZ072-PAZ021-071-VAZ022-071-271300-
OTHER REGIONAL OBSERVATIONS

CITY           SKY/WX    TMP DP  RH WIND       PRES   REMARKS
NEW YORK CITY  CLOUDY    59  59 100 CALM      29.93R FOG
PHILADELPHIA   CLOUDY    62  58  86 SE5       29.90R
PITTSBURGH     CLOUDY    63  58  83 SE5       29.71R
ROANOKE        CLOUDY    60  59  96 CALM      29.86R
RICHMOND       MOSUNNY   65  64  97 S9        29.85R
RALEIGH        MOSUNNY   65  60  84 SW9G16    29.89R

$$

ANZ530>537-271300-
MARINE OBSERVATIONS

STATION/POSITION TIME  TEMP    WIND        PRES
                       AIR SEA DIR/SP/G
                 (UTC) (F)     (DEG/KT/KT) (MB)
THOMAS PT LIGHT  1200   59 57  110/  5/  5   N/A
BALT KEY BRIDGE  1148   59     100/  6/  7 1011.2R
COVE POINT       1148   59     170/  7/  9 1011.6R
LEWISETTA        1148   65 62  230/  9/ 11 1010.6R
SOLOMONS ISLAND  1148   61 59   90/  6/  6   N/A
PINEY POINT      1142          140/  4/  5   N/A

$$





USA.gov is the U.S. government's official web portal to all federal, state and local government web resources and services.